Tracking 32932 objects as of 15-Jan-2026
HD Live streaming from Space Station
objects crossing your sky now

CZ-6A DEB

Track CZ-6A DEB now!
10-day predictions


NORAD ID: 56608
Int'l Code: 2022-151AEG
Perigee: 822.6 km
Apogee: 870.4 km
Inclination: 98.9 °
Period: 101.7 minutes
Semi major axis: 7217 km
RCS: Unknown
Launch date: November 11, 2022
Source: People's Republic of China (PRC)
Launch site: Taiyaun Space Center, China (TSC)

Note: This is SATELLITE DEBRIS
Your satellite tracking list
Your tracking list is empty




NASA's NSSDC Master Catalog

Two Line Element Set (TLE):
1 56608U 22151AEG 26013.34311951  .00001645  00000-0  85436-3 0  9990
2 56608  98.9040  37.1083 0033141  44.2117 316.1696 14.15869481140655
Source of the keplerian elements: AFSPC